Regional Weather Roundup
Issued by NWS Kansas City/Pleasant Hill, MO

Home | Current Version | Previous Version | Graphics & Text | Print | Product List | Glossary Off
Versions: 1 2 3 4 5 6 7 8 9 10 11 12 13 14 15 16 17 18 19 20 21 22 23 24 25 26 27 28 29 30 31 32 33 34 35 36 37 38 39 40 41 42 43 44 45 46 47 48 49 50

000
ASUS43 KEAX 302310
RWREAX

WEATHER ROUNDUP FOR EASTERN KANSAS AND NORTHWEST MISSOURI
NATIONAL WEATHER SERVICE KANSAS CITY/PLEASANT HILL MO
600 PM CDT THU JUL 30 2015

KSZ040-057-103>105-MOZ028-029-037-043-310000-
...KANSAS CITY METROPOLITAN AREA...

CITY           SKY/WX    TMP DP  RH WIND       PRES   REMARKS
K.C. INTL      PTSUNNY   84  62  47 CALM      30.15F
K.C. DOWNTOWN  MOSUNNY   86  56  35 SW5       30.13F
LEES SUMMIT    PTSUNNY   85  62  46 W6        30.15F
OLATHE - IXD   FAIR      85  57  38 CALM      30.16F
OLATHE - OJC   FAIR      84  57  39 CALM      30.15F
LAWRENCE       MOSUNNY   84  64  50 E5        30.14F

$$

MOZ001>008-011>017-020>025-030>033-038>040-044>046-053-054-310000-
...NORTHERN AND CENTRAL MISSOURI...

CITY           SKY/WX    TMP DP  RH WIND       PRES   REMARKS
ST. JOSEPH     SUNNY     84  65  52 SW6       30.13F
MOSBY          PTCLDY    88  55  33 CALM      30.14S
WARRENSBURG    PTSUNNY   82  63  51 W3        30.14S
WHITEMAN AFB   PTSUNNY   86  59  40 SW1       30.13F
CLINTON        PTSUNNY   86  61  42 CALM      30.15S
SEDALIA        PTSUNNY   87  58  37 SE3       30.16F
WARSAW         NOT AVBL
CHILLICOTHE      N/A     88  65  46 VRB3      30.14F HX  90
KIRKSVILLE     SUNNY     86  62  44 W8        30.14F

$$

MOZ041-047>049-056>058-063>065-088>090-097-310000-
...EASTERN AND SOUTHERN MISSOURI...

CITY           SKY/WX    TMP DP  RH WIND       PRES   REMARKS
ST. LOUIS INTL PTSUNNY   88  62  41 NW7       30.11F
SPIRIT OF STL  PTSUNNY   85  67  54 W3        30.10F
COLUMBIA       MOSUNNY   86  63  45 NW3       30.14F
JEFFERSON CITY PTSUNNY   87  57  35 SE3       30.12F
ROLLA          CLOUDY    86  59  39 NE3       30.14F
OSAGE BEACH    PTSUNNY   84  61  45 CALM      30.15F
SPRINGFIELD    PTSUNNY   86  58  38 NE9       30.14F
BRANSON        PTSUNNY   84  63  48 E6        30.16F
JOPLIN         PTSUNNY   86  62  44 NE6       30.13F
WEST PLAINS    MOSUNNY   85  59  41 NE6       30.16F

$$

IAZ060-094-KSZ022-034>040-054-083-096-NEZ052-066-093-310000-
...KANSAS...SOUTHEAST NEBRASKA AND IOWA...

CITY           SKY/WX    TMP DP  RH WIND       PRES   REMARKS
TOPEKA         MOSUNNY   85  60  42 E5        30.14F
MANHATTAN      MOSUNNY   88  62  41 S7        30.13F
EMPORIA        MOSUNNY   82  64  54 E5        30.15F
CHANUTE        CLOUDY    84  65  52 NE8       30.14F
WICHITA        MOSUNNY   84  69  60 E5        30.14F
OMAHA          MOSUNNY   91  58  32 VRB7      30.12F HX  90
LINCOLN        SUNNY     89  57  33 S9        30.14F
FALLS CITY     SUNNY     86  63  45 S6        30.13F
LAMONI         SUNNY     85  64  49 W6        30.15F
DES MOINES     MOSUNNY   87  56  34 W13       30.11S

$$




USA.gov is the U.S. government's official web portal to all federal, state and local government web resources and services.